STARLINK-35564, 67420

Orbit data source: Space-Track

STARLINK-35564, 67420 is a payload satellite owned by SpaceX/Seattle (US) in LEO that was launched on Mon, 12 Jan 2026 UTC via an FALCON 9 launch vehicle from the Air Force Eastern Test Range (AFETR). Payload-class satellites include a variety of spacecraft equipped with specific instruments for various scientific and technological missions. These include communications satellites like Starlink; space stations such as the ISS; scientific satellites like the Hubble; Earth observation satellites from companies like Planet Labs, Umbra, and HawkEye 360; GPS; miniature CubeSats for education and research; and military/defense satellites.

Loading next visibility...
Identifier
67420, 2026-005S
Orbit
LEO
Country
Flag of USUS
Related business
Manufacturer
SpaceX/Seattle
Mission
Operational Commercial Communications
Bus & Motor
STARLINK V2MO, Unknown motor
Mass
575 kg wet, ~530 kg dry
Launch date (UTC)
2026-01-12 (5 months ago)
Launch vehicle
FALCON 9
Launch site
Air Force Eastern Test Range (AFETR)
Object type
Payload
Rocket body
Debris
Shape & HBR
Box + 2 Pan, 17.7 m
Radar Cross Section
36.964 m², Large (>1 m²)

Expand to show TLE details & history
Last TLE update: 20 hours ago

TLE from 20 hours ago
0 STARLINK-35564
1 67420U 26005S   26171.00587266  .00011545  00000-0  42818-3 0  9995
2 67420  43.0001  20.2198 0001349 268.3119  91.7578 15.27595724 24345
Epoch: 2026-06-20T00:08Z
TLE epoch observation values (Epoch: 2026-06-20T00:08:27.397Z)
Latitude
-0.00004°
Longitude
109.8789°
Altitude
482.806 km
Speed
7.626 km/s
True Right ascension
01h 20m 52s
True Declination
0° 00' 00"
Sunlit
Object was in daylight at epoch
Visualization orbit readout
Latitude
Unknown
Longitude
Unknown
Altitude
Unknown
Speed
Unknown
Apparent Right ascension
Unknown
Apparent Declination
Unknown
Sunlit
N/A
Visualization observer readout
Local Sidereal Time
07:16:49
Azimuth
Unknown
Elevation
Unknown
Doppler factor
Unknown
Orbital elements
Apogee altitude
485.873 km
Perigee altitude
484.021 km
Semi-major axis
6,863.084 km
Eccentricity
0.00013
Inclination
43.0001°
RAAN
20.2198°
Arg. of periapsis
268.3119°
True anomaly
91.77325°
Mean anomaly
91.7578°
Eccentric anomaly
91.76553°
Mean motion
3.81737 °/min
Orbital period
94.31 mins
BSTAR
0.00042818
Loading maneuver chart data...
Computing Atmospheric mass density...
Loading historical data...
Loading historical data...
Loading historical data...
Loading historical data...
Loading historical data...
Loading historical data...
Loading historical data...

Documentation

Showing up to 5 results
|